Location: Juniper Campground
(35.7953°N, 106.2814°W)
Time: 11:07:57
(UTC-07:00)

Envisat - Pass Details

Date: 29 August 2018
Orbit: 764 x 766 km, 98.2° (Epoch: 18 November)

Event Time Altitude Azimuth Distance (km) Brightness Sun altitude
Rises 21:01:06 0° 193° (SSW) 3,207 6.1 -17.1°
Reaches altitude 10° 21:03:40 10° 205° (SSW) 2,286 5.4 -17.6°
Maximum altitude 21:07:59 29° 264° (W) 1,386 4.9 -18.4°
Drops below altitude 10° 21:12:21 10° 323° (NW) 2,300 6.4 -19.1°
Sets 21:14:58 0° 335° (NNW) 3,231 7.1 -19.6°
